Other Public Products
Issued by NWS Grand Forks, ND

Home | Current Version | Previous Version | Graphics & Text | Print | Product List | Glossary On
Versions: 1 2 3 4 5 6 7 8 9 10 11 12 13 14 15 16 17 18 19 20 21 22 23 24 25 26 27 28 29 30 31 32 33 34 35 36 37 38 39 40 41 42 43 44 45 46 47 48 49 50
490
FPUS83 KFGF 232131
OPUFGF
PRAIRIE TO PINES WEATHER ROUNDUP
NATIONAL WEATHER SERVICE EASTERN NORTH DAKOTA/GRAND FORKS ND
400 PM CDT MON APR 23 2018

 **SATELLITE DATA USED TO AUGMENT SKY COVER AT AUTOMATED STATIONS**
 *****  WEATHER ACROSS EASTERN NORTH DAKOTA  *****

CITY           SKY/WX    TMP DP  RH WIND       PRES   REMARKS
GRAND FORKS    FAIR      62  37  39 N12G23    30.17F
GRND FORKS AFB NOT AVBL
GRND FORKS NWS   N/A     64  37  37 VRB7      30.15F
BUXTON           N/A    N/A N/A N/A CALM        N/A
DEVILS LAKE    FAIR      58  33  39 N14       30.20F
FARGO          FAIR      66  39  37 N10G17    30.15F
WAHPETON ARPT  FAIR      66  34  30 W3        30.14F
$$

 *****  WEATHER ACROSS CENTRAL AND WESTERN NORTH DAKOTA  *****

CITY           SKY/WX    TMP DP  RH WIND       PRES   REMARKS
JAMESTOWN      FAIR      65  39  38 NE7       30.15F
BISMARCK       PTSUNNY   63  31  30 NE16G25   30.16F
MINOT          PTSUNNY   54  34  46 NW17      30.23F
MINOT AFB      NOT AVBL
GARRISON         N/A     53  35  50 N10G18    30.22R
WILLISTON      CLOUDY    50  32  50 N20       30.30S
DICKINSON      CLOUDY    52  31  44 NE20      30.19S
HETTINGER      CLOUDY    58  31  35 NE21G30   30.12F
$$

 *****  OTHER OBSERVATIONS NORTHEAST NORTH DAKOTA  *****

CITY           SKY/WX    TMP DP  RH WIND       PRES   REMARKS
WALHALLA       FAIR      61  36  39 NW14      30.18F
LANGDON        NOT AVBL
CAVALIER         N/A     63  36  36 N9G15     30.17F
GRAFTON        NOT AVBL
CANDO          FAIR      57  34  41 N10G17    30.22F
FORT TOTTEN      N/A     60  32  34 N6        29.95S
ROLLA          FAIR      54  36  50 NW15      30.21F
RUGBY          NOT AVBL
 ***** THE ABOVE OBSERVATIONS ARE NON NWS ARE NOT QUALITY
        CONTROLLED AND MAY MIS-REPORT RAIN FOR SNOW...
$$

 *****  OTHER OBSERVATIONS SOUTHEAST NORTH DAKOTA *****

CITY           SKY/WX    TMP DP  RH WIND       PRES   REMARKS
COOPERSTOWN    FAIR      61  39  44 N9        30.18F
VALLEY CITY    NOT AVBL
OAKES            N/A     68  41  37 SW6       30.13F
GWINNER          N/A     68  41  37 CALM      30.13F
SHEYENNE NWR     N/A     67  47  48 N10       29.95
BUFFALO          N/A     62  36  38 W8          N/A
WYNDMERE       NOT AVBL
 ***** THE ABOVE OBSERVATIONS ARE NON NWS ARE NOT QUALITY
       CONTROLLED AND MAY MIS-REPORT RAIN FOR SNOW...
$$

  *****  WEATHER ACROSS NORTHERN MINNESOTA  *****

CITY           SKY/WX    TMP DP  RH WIND       PRES   REMARKS
FLAG ISLAND    FAIR      54  27  35 N10       30.13S
WARROAD        FAIR      63  34  34 W8G17     30.15S
ROSEAU         FAIR      61  36  39 NW7       30.16S
HALLOCK        FAIR      63  28  27 N9        30.17S
THF RVR FALLS  FAIR      60  36  40 NW14      30.18F
HALSTAD        NOT AVBL
FOSSTON        FAIR      64  30  27 NW9       30.17S
BAUDETTE       FAIR      60  33  36 N15       30.14S
WASKISH        PTSUNNY   59  34  38 W10       30.14F
CROOKSTON      FAIR      61  39  44 N10       30.18F
$$
  *****  WEATHER ACROSS CENTRAL AND WEST MINNESOTA  *****

CITY           SKY/WX    TMP DP  RH WIND       PRES   REMARKS
BEMIDJI        FAIR      65  34  32 NW13G18   30.14S
PARK RAPIDS    FAIR      69  38  32 W14       30.12F
WADENA         FAIR      64  41  42 W5        30.13F
DETROIT LAKES  FAIR      64  41  42 N9        30.15F
MOORHEAD       FAIR      64  39  39 N8        30.16S
FERGUS FALLS   FAIR      66  41  39 CALM      30.11F
ELBOW LAKE     FAIR      65  40  39 CALM      30.14F
MORRIS MN      FAIR      66  39  37 CALM      30.13F
STAPLES        FAIR      68  36  30 NW9       30.13F
WHEATON        FAIR      70  34  26 W6        30.14F
$$
  *****  WEATHER ELSEWHERE ACROSS MINNESOTA  *****

CITY           SKY/WX    TMP DP  RH WIND       PRES   REMARKS
DULUTH         FAIR      67  39  35 NW5       30.12F
INTRNTL FALLS  FAIR      64  32  30 NW14G23   30.12S
ELY            FAIR      64  30  27 W13       30.10S
CLOQUET        FAIR      66  30  26 SW7       30.12F
BRAINERD       FAIR      70  38  31 VRB5      30.13F
HIBBING        FAIR      67  36  31 W8        30.11F
ALEXANDRIA     FAIR      69  34  27 VRB6      30.15F
SAINT CLOUD    FAIR      68  38  33 N8        30.14F
MINNEAPOLIS    FAIR      70  36  28 NW9       30.14F
$$

  *****  WEATHER ACROSS SOUTH DAKOTA  *****

CITY           SKY/WX    TMP DP  RH WIND       PRES   REMARKS
SIOUX FALLS    FAIR      69  33  26 NE3       30.13F
BROOKINGS      FAIR      66  34  30 VRB5      30.14F
WATERTOWN      FAIR      67  36  31 MISG      30.13F
HURON          FAIR      69  39  33 S6        30.11F
SISSETON         N/A     71  38  29 CALM      30.11F
ABERDEEN       PTSUNNY   74  37  26 SE8       30.11F
MITCHELL       CLOUDY    68  41  37 S10       30.12F
PIERRE         FAIR      69  40  34 S17G24    30.05F
MOBRIDGE       FAIR      71  40  32 S12       30.06F
RAPID CITY     FAIR      66  41  40 E13       30.00F
$$

  *****  SOME WEATHER IN NEARBY STATES *****

CITY           SKY/WX    TMP DP  RH WIND       PRES   REMARKS
GLASGOW MT     FAIR      51  22  31 N16       30.35S
GREAT FALLS MT FAIR      49  25  39 NE13G20   30.41R
CHEYENNE WY    FAIR      62  35  36 SE9       30.04F
SCOTTSBLUFF NE FAIR      67  41  38 SE14      30.01R
OMAHA NE       FAIR      75  29  18 E5        30.08F
DES MOINES IA  FAIR      73  29  19 NE12      30.09F
DAVENPORT IA   FAIR      72  30  21 NE16G22   30.08F
CHICAGO IL     PTSUNNY   62  30  29 NE16      30.10F
EAU CLAIRE WI  FAIR      68  30  24 VRB3      30.14F
LA CROSSE WI   FAIR      70  28  21 W8        30.13F
$$

  *****  SOME NATIONAL WEATHER *****

CITY           SKY/WX    TMP DP  RH WIND       PRES   REMARKS
LA GUARDIA NY  FAIR      62  28  27 S14       30.43S
RALEIGH NC     CLOUDY    64  53  67 SE16G25   30.22F
ATLANTA GA     TSTM      66  65  96 NE13      29.86F FOG
NEW ORLEANS LA FAIR      74  56  53 W12G21    29.94F
OKLAHOMA CITY  FAIR      70  46  42 N12G17    30.04F
ALBUQUERQUE NM FAIR      78  22  12 NW8       30.08F
SALT LAKE CITY PTSUNNY   64  27  24 NW17G25   30.15S
LOS ANGELES CA FAIR      66  55  67 W12       29.99F
BOISE ID       FAIR      63  29  27 NW18G26   30.21S
SEATTLE WA     FAIR      68  37  32 N16       30.28F
$$

*** WEATHER ACROSS MANITOBA...SASKATCHEWAN AND ONTARIO ***
                ***ONTARIO***

CITY           SKY/WX    TMP DP  RH WIND       PRES   REMARKS
GERALDTON      PTSUNNY   57  32  38 SW13G25   29.99F
THUNDER BAY    PTSUNNY   68  32  26 W17G23    30.05F
SIOUX LOOKOUT  PTSUNNY   55  32  41 NW13G22   30.07R
TORONTO        MOSUNNY   63  21  20 E13       30.25F
BIG TROUT LK   CLOUDY    37  28  70 NW18G26   29.96R
PICKLE LAKE    PTSUNNY   45  32  61 W13G25    30.01R
DRYDEN         SUNNY     55  30  38 W21G28    30.09S
KENORA         PTSUNNY   54  28  37 NW13      30.15R
$$
                *** MANITOBA***

CITY           SKY/WX    TMP DP  RH WIND       PRES   REMARKS
BRANDON        CLOUDY    54  37  54 NW18      30.21F
DAUPHIN        PTSUNNY   52  32  46 NW17G26   30.20S
ISLAND LAKE    CLOUDY    32  23  69 NW10G18   30.10R WCI  24
PILOT MOUND      N/A     55  34  44 NW13G18     N/A
THE PAS        PTSUNNY   34  25  69 N13G20    30.22R WCI  25
THOMPSON       LGT SNOW  21  18  86 N9        30.17R VSB 5/8 WCI  11
WINNIPEG       PTSUNNY   59  34  38 NW15G24   30.18S
LYNN LAKE      LGT SNOW  25  19  80 N13       30.25R WCI  13
CHURCHILL      PTSUNNY   21  16  79 N20G26    30.21R WCI   6
GILLAM         LGT SNOW  23  18  80 N17       30.11R WCI   9
$$
                ***SASKATCHEWAN***

CITY           SKY/WX    TMP DP  RH WIND       PRES   REMARKS
ESTEVAN        PTSUNNY   52  23  32 N17       30.28S
KINDERSLEY     MOSUNNY   54  23  30 N17G31    30.36S
LLOYDMINSTER   MOSUNNY   54  23  30 NW14G22   30.32F
PRINCE ALBERT  MOSUNNY   52  23  32 NW21G26   30.31S
REGINA         PTSUNNY   54  19  26 N23G35    30.32S
YORKTON        PTSUNNY   52  28  40 NW20G30   30.25R



USA.gov is the U.S. government's official web portal to all federal, state and local government web resources and services.